Location: Unspecified
(0.0000°N, 0.0000°E)
Time: 01:55:27
(UTC+00:00)

A-11 Canister half - Pass Details

Date: 20 November 2019
Orbit: 1526 x 1683 km, 47.3° (Epoch: 10 December)

Event Time Altitude Azimuth Distance (km) Brightness Sun altitude
Rises 20:42:03 0° 312° (NW) 4,686 11.8 -40.9°
Reaches altitude 10° 20:45:09 10° 309° (NW) 3,694 11.2 -41.6°
Enters shadow 20:52:16 52° 276° (W) 1,836 9.4 -43.2°
Maximum altitude 20:54:16 62° 231° (SW) 1,686 - -43.6°
Drops below altitude 10° 21:03:27 10° 151° (SSE) 3,711 - -45.6°
Sets 21:06:35 0° 148° (SSE) 4,708 - -46.3°
